Le nostre stazioni meteo in Italia

Pubblicità
Il mio iltempo24.it
Fyvie castle, Gran Bretagna (99010): Temperatura & dewpoint: 14.04.2018 19:00:00 - 20.04.2018 19:00:00 (BST)Fyvie castle, Gran Bretagna (99010): precipitazioni: 14.04.2018 19:00:00 - 20.04.2018 19:00:00 (BST)
Data & Tempo tt [°C] td [°C] rr [mm]
20.04.2018 19:00:00 - - -
20.04.2018 18:00:00 15,0 4,0 0,0
20.04.2018 17:00:00 16,7 3,2 0,0
20.04.2018 16:00:00 17,4 3,7 0,0
20.04.2018 15:00:00 17,3 5,6 0,0
20.04.2018 14:00:00 17,1 4,1 0,0
20.04.2018 13:00:00 17,2 3,5 0,0
20.04.2018 12:00:00 16,5 2,6 0,0
20.04.2018 11:00:00 15,5 5,7 0,0
20.04.2018 10:00:00 15,0 6,3 0,0
20.04.2018 09:00:00 11,7 8,8 0,0
20.04.2018 08:00:00 7,6 6,8 0,0
20.04.2018 07:00:00 6,3 5,8 0,0
20.04.2018 06:00:00 5,6 5,1 0,0
20.04.2018 05:00:00 5,7 5,2 0,0
20.04.2018 04:00:00 5,4 5,0 0,0
20.04.2018 03:00:00 4,8 4,3 0,0
20.04.2018 02:00:00 5,1 4,3 0,0
20.04.2018 01:00:00 6,0 4,8 0,0
20.04.2018 00:00:00 7,3 5,9 0,0
19.04.2018 23:00:00 8,2 5,9 0,0
19.04.2018 22:00:00 10,1 6,4 0,0
19.04.2018 21:00:00 12,9 7,1 0,0
19.04.2018 20:00:00 16,3 7,7 0,0
19.04.2018 19:00:00 17,1 7,6 0,0
19.04.2018 18:00:00 18,8 7,5 0,0
19.04.2018 17:00:00 20,0 9,1 0,0
19.04.2018 16:00:00 20,7 9,6 0,0
19.04.2018 15:00:00 20,6 10,1 0,0
19.04.2018 14:00:00 18,7 10,2 0,0
19.04.2018 13:00:00 18,5 10,4 0,0
19.04.2018 12:00:00 18,2 10,7 0,0
19.04.2018 11:00:00 17,5 10,6 0,0
19.04.2018 10:00:00 15,5 9,9 0,0
19.04.2018 09:00:00 15,4 10,1 0,0
19.04.2018 08:00:00 - - -
19.04.2018 07:00:00 - - -
19.04.2018 06:00:00 - - -
19.04.2018 05:00:00 - - -
19.04.2018 04:00:00 - - -
19.04.2018 03:00:00 - - -
19.04.2018 02:00:00 10,6 8,7 0,0
19.04.2018 01:00:00 10,7 8,9 0,0
19.04.2018 00:00:00 10,4 8,1 0,0
18.04.2018 23:00:00 11,4 9,0 0,0
18.04.2018 22:00:00 11,5 9,1 0,0
18.04.2018 21:00:00 13,1 9,5 0,0
18.04.2018 20:00:00 13,8 10,1 0,0
18.04.2018 19:00:00 14,9 10,3 0,0
18.04.2018 18:00:00 15,9 10,5 0,0
18.04.2018 17:00:00 17,5 11,2 0,0
18.04.2018 16:00:00 16,9 10,0 0,0
18.04.2018 15:00:00 16,0 10,2 0,0
18.04.2018 14:00:00 16,0 10,4 0,0
18.04.2018 13:00:00 14,2 9,6 0,0
18.04.2018 12:00:00 13,3 9,4 0,0
18.04.2018 11:00:00 12,4 8,6 0,0
18.04.2018 10:00:00 11,8 8,1 0,0
18.04.2018 09:00:00 11,7 7,6 0,0
18.04.2018 08:00:00 10,2 7,8 0,0
18.04.2018 07:00:00 9,1 7,0 0,0
18.04.2018 06:00:00 9,4 6,7 0,0
18.04.2018 05:00:00 9,4 7,0 0,0
18.04.2018 04:00:00 10,6 7,6 0,0
18.04.2018 03:00:00 8,9 7,0 0,0
18.04.2018 02:00:00 10,0 7,1 0,0
18.04.2018 01:00:00 10,5 7,1 0,0
18.04.2018 00:00:00 10,9 7,4 0,0
17.04.2018 23:00:00 10,9 7,4 0,0
17.04.2018 22:00:00 11,4 7,4 0,0
17.04.2018 21:00:00 12,2 7,4 0,0
17.04.2018 20:00:00 13,5 7,3 0,0
17.04.2018 19:00:00 14,4 7,9 0,0
17.04.2018 18:00:00 15,6 7,9 0,0
17.04.2018 17:00:00 16,1 7,7 0,0
17.04.2018 16:00:00 15,3 8,2 0,0
17.04.2018 15:00:00 15,7 7,1 0,0
17.04.2018 14:00:00 15,3 8,8 0,0
17.04.2018 13:00:00 15,1 8,0 0,0
17.04.2018 12:00:00 13,5 8,8 0,0
17.04.2018 11:00:00 10,8 7,3 0,0
17.04.2018 10:00:00 9,7 6,3 0,0
17.04.2018 09:00:00 9,1 6,0 0,0
17.04.2018 08:00:00 8,2 5,7 0,0
17.04.2018 07:00:00 8,4 5,4 0,0
17.04.2018 06:00:00 9,1 5,3 0,0
17.04.2018 05:00:00 9,2 5,1 0,0
17.04.2018 04:00:00 9,3 4,9 0,0
17.04.2018 03:00:00 9,2 5,0 0,0
17.04.2018 02:00:00 9,4 4,3 0,0
17.04.2018 01:00:00 9,8 4,2 0,0
17.04.2018 00:00:00 10,1 4,4 0,0
16.04.2018 23:00:00 10,0 4,3 0,0
16.04.2018 22:00:00 9,7 4,2 0,0
16.04.2018 21:00:00 9,7 4,1 0,0
16.04.2018 20:00:00 11,3 4,5 0,0
16.04.2018 19:00:00 12,3 7,6 0,0
16.04.2018 18:00:00 13,9 6,2 0,0
16.04.2018 17:00:00 14,1 7,4 0,0
16.04.2018 16:00:00 16,0 7,0 0,0
16.04.2018 15:00:00 15,9 7,7 0,0
16.04.2018 14:00:00 15,5 9,0 0,0
16.04.2018 13:00:00 12,7 8,5 0,0
16.04.2018 12:00:00 12,0 8,4 0,0
16.04.2018 11:00:00 9,9 8,5 0,0
16.04.2018 10:00:00 7,8 7,3 0,0
16.04.2018 09:00:00 7,0 6,7 0,0
16.04.2018 08:00:00 6,7 6,5 0,0
16.04.2018 07:00:00 6,6 6,4 0,0
16.04.2018 06:00:00 6,5 6,4 0,2
16.04.2018 05:00:00 6,4 6,3 0,2
16.04.2018 04:00:00 6,3 6,2 0,0
16.04.2018 03:00:00 6,1 6,0 0,0
16.04.2018 02:00:00 5,8 5,6 0,0
16.04.2018 01:00:00 5,6 5,4 0,0
16.04.2018 00:00:00 5,4 5,0 0,0
15.04.2018 23:00:00 5,2 4,7 0,0
15.04.2018 22:00:00 5,6 4,8 0,0
15.04.2018 21:00:00 6,1 5,0 0,0
15.04.2018 20:00:00 7,8 5,2 0,0
15.04.2018 19:00:00 10,4 4,9 0,0
15.04.2018 18:00:00 11,9 5,0 0,0
15.04.2018 17:00:00 12,6 5,2 0,0
15.04.2018 16:00:00 13,4 5,8 0,0
15.04.2018 15:00:00 12,7 5,2 0,0
15.04.2018 14:00:00 14,0 7,0 0,0
15.04.2018 13:00:00 13,8 6,3 0,0
15.04.2018 12:00:00 13,8 6,8 0,0
15.04.2018 11:00:00 12,3 8,1 0,0
15.04.2018 10:00:00 10,2 8,3 0,0
15.04.2018 09:00:00 5,2 5,2 0,0
15.04.2018 08:00:00 1,7 1,7 0,0
15.04.2018 07:00:00 0,7 0,4 0,0
15.04.2018 06:00:00 0,7 0,4 0,0
15.04.2018 05:00:00 1,2 0,9 0,0
15.04.2018 04:00:00 1,9 1,5 0,0
15.04.2018 03:00:00 2,5 2,1 0,0
15.04.2018 02:00:00 3,0 2,4 0,0
15.04.2018 01:00:00 3,8 3,2 0,0
15.04.2018 00:00:00 4,5 3,6 0,0
14.04.2018 23:00:00 5,5 4,2 0,0
14.04.2018 22:00:00 7,0 5,1 0,0
14.04.2018 21:00:00 9,0 5,2 0,0
14.04.2018 20:00:00 12,3 6,0 0,0
14.04.2018 19:00:00 14,9 4,9 0,0

tt = Temperatura
td = dewpoint
rr = precipitazioni

Stazioni seguenti

WeatherPro
AMSI
MeteoEarth